EHI
0 0 0 0 0 0 0 0 0 0 0 1 4 9 15 17 16 15 14 14 14 15 17 18 19 22 24 25 27 30 31 30 29 28 25 21 18 17 17 17 16 15 15 14
0 0 0 0 0 0 0 0 0 0 0 2 6 12 16 18 15 14 14 14 15 16 20 22 22 23 25 26 27 28 29 29 29 27 24 21 20 20 20 18 17 16 16 15
0 0 0 0 0 0 0 0 0 0 2 7 11 14 16 17 15 13 13 15 17 19 23 26 26 26 28 29 29 30 30 29 29 26 22 23 25 25 23 20 17 16 17 16
0 0 0 0 0 0 0 0 1 2 6 12 14 14 14 14 14 14 14 15 17 21 24 25 26 28 32 34 33 32 31 30 28 25 24 26 29 28 24 21 18 17 17 16
0 0 0 0 1 1 2 2 3 7 11 13 13 13 12 11 11 13 15 15 16 18 22 23 22 26 33 36 35 32 30 30 28 27 28 29 29 26 23 23 22 20 18 17
0 0 0 1 2 3 4 5 6 10 13 12 11 11 10 8 9 11 13 13 13 14 17 18 17 21 28 33 32 29 27 29 30 30 30 30 28 24 23 24 25 23 20 19
0 0 1 2 3 2 3 5 7 11 12 11 10 9 8 7 8 10 11 11 12 12 13 13 14 16 21 26 27 25 25 28 31 30 30 29 28 25 24 25 26 24 22 20
0 0 1 2 2 1 1 4 8 10 10 9 8 7 6 7 8 9 10 10 10 10 10 10 11 13 17 21 22 23 25 27 29 29 29 29 28 26 24 24 24 23 20 19
0 0 0 1 1 0 0 3 7 7 6 6 6 6 5 5 7 9 10 9 8 7 7 7 8 11 15 18 20 23 25 25 26 27 28 27 27 25 23 22 22 21 19 18
0 0 0 0 0 0 0 2 4 4 3 4 5 5 4 4 6 8 9 7 5 5 5 4 5 9 13 17 20 23 24 23 24 24 25 25 24 24 23 22 21 19 18 17
0 0 0 0 0 0 1 2 2 2 2 3 4 4 4 4 4 6 7 6 5 5 5 4 5 8 13 18 21 22 22 22 21 21 23 23 23 22 21 20 18 16 16 17
0 0 0 0 0 1 1 1 1 0 1 1 3 3 3 3 2 3 5 5 5 5 6 6 7 10 15 18 21 22 22 22 20 19 21 22 22 20 17 14 11 9 10 12
0 0 0 0 0 1 1 1 0 0 0 1 2 2 2 1 0 1 3 3 4 6 7 8 11 15 19 19 20 21 22 23 21 19 19 20 20 19 16 11 6 4 4 5
0 0 1 1 0 0 1 2 1 0 0 0 1 1 1 0 0 0 1 3 4 7 9 11 14 17 20 19 18 18 19 21 22 20 18 18 19 18 17 13 8 4 2 1
0 1 2 2 1 1 2 2 1 0 0 0 0 0 0 0 0 0 1 3 5 7 11 13 14 15 16 16 15 13 13 16 19 18 16 17 18 18 18 17 14 9 4 1
1 2 3 3 2 2 2 1 0 0 0 0 0 0 0 0 1 1 2 3 4 7 9 10 11 11 11 12 11 10 10 12 15 15 13 15 17 18 18 19 17 12 5 2
1 2 2 2 2 1 1 0 0 0 0 1 1 1 1 1 2 3 3 3 4 5 6 7 7 7 6 8 10 10 10 10 12 13 12 13 15 16 17 18 17 13 6 2
0 1 1 1 1 0 0 1 1 1 1 2 2 2 2 3 3 3 3 3 3 4 5 5 4 4 3 5 8 10 11 12 12 13 13 14 14 15 16 16 14 12 7 3
0 0 0 0 0 0 1 2 2 1 2 3 3 3 3 3 3 3 3 3 3 3 3 3 2 2 2 2 3 6 9 11 12 13 13 14 14 13 12 11 11 10 7 3
0 0 1 1 1 0 2 3 3 3 3 3 3 3 3 3 3 2 2 2 2 2 1 1 0 1 1 0 0 2 4 7 9 10 11 11 11 10 8 7 8 9 7 4
1 1 2 3 3 2 2 3 3 3 3 3 3 3 3 3 2 1 1 1 1 1 0 0 0 0 0 0 0 0 1 2 5 7 7 7 7 6 4 5 6 7 6 5
2 2 4 5 4 2 2 2 2 2 2 2 2 2 3 3 3 2 1 0 0 0 0 0 0 0 0 0 0 0 0 1 2 4 5 6 5 4 4 5 6 6 6 5
3 4 4 3 2 1 1 1 1 1 1 1 1 1 2 3 3 2 1 0 0 0 0 0 0 0 0 0 0 1 1 1 2 3 4 4 4 4 4 5 6 5 4 4
4 4 3 1 0 0 0 0 0 1 1 1 1 2 3 3 3 1 0 0 0 0 0 0 0 0 0 0 0 1 2 2 3 3 4 4 3 4 4 4 4 4 3 3
3 3 2 1 0 0 0 0 0 1 2 2 3 3 3 2 2 1 0 0 0 0 0 0 0 0 0 0 0 1 1 1 2 3 4 4 3 3 3 3 3 3 2 2
1 1 1 0 0 0 0 0 0 1 2 2 2 2 1 1 1 0 0 0 0 0 0 0 0 0 0 0 0 0 0 0 1 1 1 1 1 1 1 2 2 1 1 1
0 0 0 0 0 0 0 0 0 0 1 1 1 1 0 0 0 0 0 0 0 0 0 0 0 0 0 0 0 0 0 0 0 0 0 0 0 0 0 1 1 0 0 0
Wind_Speed
3 4 1 3 3 2 1 4 6 5 5 5 5 5 5 6 6 5 4 4 5 5 4 4 4 4 5 5 5 6 6 6 6 6 5 4 4 3 3 3 3 3 2 2
3 2 2 4 4 2 2 1 3 4 1 3 1 4 5 5 6 5 3 2 3 4 4 4 5 5 5 5 5 5 5 5 5 4 4 4 4 3 3 3 3 3 3 3
2 4 4 3 2 2 2 2 4 3 3 1 4 4 5 5 6 6 4 2 2 2 3 4 5 5 5 4 4 5 5 4 4 4 4 4 5 4 4 4 3 3 3 3
1 3 2 6 2 3 5 4 3 3 3 5 5 3 3 4 5 4 3 2 1 1 1 1 2 3 4 4 4 4 3 3 2 3 4 4 4 4 4 3 3 3 3 4
3 2 3 4 4 1 3 3 4 6 5 5 5 6 3 2 4 3 3 2 1 1 1 2 2 3 4 4 4 3 3 3 3 4 3 3 3 4 4 3 3 3 3 3
3 3 4 5 5 2 6 2 4 5 5 4 5 3 2 2 2 2 2 2 2 1 1 2 2 3 4 4 3 3 3 3 3 3 4 4 4 3 3 3 3 3 3 3
3 2 4 5 5 4 3 4 2 3 4 3 2 3 3 1 1 1 1 1 2 2 1 1 2 3 3 2 3 4 3 2 2 3 3 4 3 2 2 2 2 2 2 2
2 2 5 5 4 3 3 2 1 2 2 3 1 1 1 1 1 1 1 1 2 2 1 0 1 3 3 3 3 2 2 2 2 2 3 2 2 2 2 2 2 2 2 2
5 5 4 1 2 2 3 3 1 1 1 2 2 1 1 0 0 1 0 0 1 2 1 1 0 3 3 3 2 2 2 2 2 2 2 2 2 2 2 2 2 3 2 3
2 1 1 2 2 2 2 2 1 2 2 2 1 0 1 1 1 1 1 0 1 1 1 1 1 2 3 2 2 2 2 2 2 2 2 1 2 2 2 3 3 3 3 3
0 2 3 3 2 2 3 3 3 2 1 2 2 0 0 1 1 1 1 1 1 2 2 2 1 2 2 1 1 1 1 1 2 2 2 2 2 2 3 3 4 4 4 4
4 4 2 3 2 2 3 2 2 2 2 1 1 1 1 1 2 1 1 1 1 1 1 1 1 1 1 1 2 2 1 1 2 2 2 2 1 1 1 1 2 3 4 4
4 3 2 2 1 1 1 1 0 0 1 1 2 1 1 2 2 1 1 1 1 1 1 1 1 1 1 1 1 2 2 2 2 2 2 2 2 2 1 2 2 0 2 3
1 1 1 2 2 2 2 1 2 2 2 1 1 1 1 1 1 0 2 2 2 1 0 1 1 1 2 1 2 2 2 2 2 2 2 3 3 3 2 2 1 1 2 1
2 1 3 3 2 2 1 1 2 3 3 2 1 1 1 1 1 1 2 2 1 0 1 1 1 2 2 2 2 2 2 2 2 2 2 2 2 2 2 2 2 1 1 2
2 2 1 1 2 2 1 0 1 2 2 2 1 1 1 1 1 1 1 1 0 1 1 1 2 2 2 1 2 2 2 2 1 1 1 1 1 1 1 1 1 1 1 1
1 2 2 2 2 2 2 2 2 2 2 1 2 2 1 0 0 1 1 1 1 1 1 1 2 2 2 1 0 1 1 1 0 0 1 1 1 1 1 1 1 2 2 2
3 4 4 3 3 2 2 2 2 2 2 2 1 1 0 1 1 1 1 1 2 2 2 2 2 1 2 2 1 0 0 0 0 0 0 0 1 1 1 1 1 2 1 1
1 1 1 1 1 1 1 2 2 1 1 0 1 1 1 1 1 1 1 1 1 1 3 3 2 1 2 2 2 1 1 1 1 1 0 1 1 1 0 1 1 1 2 2
1 1 1 1 1 0 1 1 0 0 1 1 2 1 1 1 0 1 1 0 1 1 2 1 1 1 1 1 3 2 1 1 1 1 1 1 1 1 1 1 1 1 1 1
1 1 1 1 1 1 1 0 1 1 0 1 1 1 1 0 0 1 1 0 2 2 1 0 1 0 1 1 2 2 1 1 1 1 1 1 1 1 1 0 1 1 1 1
1 1 1 1 1 1 1 0 1 1 1 1 1 1 2 0 0 0 1 1 2 2 0 0 0 0 1 2 2 2 1 1 2 2 2 1 1 1 1 1 1 1 1 1
1 1 2 1 1 0 2 1 0 1 1 0 1 1 1 1 1 1 1 1 1 1 0 0 0 1 2 2 2 2 2 2 2 2 2 1 1 1 1 1 1 1 1 1
2 2 2 1 1 2 1 2 1 1 1 1 0 1 1 1 0 1 1 1 0 1 1 1 2 3 3 2 3 3 2 2 2 2 2 2 2 2 2 2 2 2 2 2
1 2 2 2 1 1 0 1 2 3 3 2 2 2 1 1 1 1 1 1 2 2 2 3 4 4 4 3 3 3 2 2 2 2 3 3 3 3 3 3 2 2 2 2
1 1 1 1 0 0 1 1 1 1 2 2 2 2 2 1 2 2 2 2 3 3 2 2 2 3 3 3 3 2 2 3 3 3 3 3 3 3 3 3 3 2 2 2
1 1 1 1 1 1 1 1 1 1 1 2 1 1 1 2 3 3 3 3 3 3 2 2 2 3 3 3 3 3 3 3 3 3 3 3 3 3 3 3 2 2 2 3
Wind_Direction
219 248 302 318 309 324 109 176 176 199 185 220 206 176 150 123 112 99 115 126 140 142 146 148 153 163 168 172 173 171 170 180 191 193 193 195 197 194 193 194 202 203 207 221
336 307 358 352 348 11 20 111 133 120 221 264 172 96 106 113 115 115 115 113 120 128 135 150 161 166 167 170 173 164 170 187 191 184 184 188 195 193 197 203 206 201 214 222
305 315 23 339 328 67 52 42 126 161 221 128 87 105 138 137 127 131 130 116 90 125 155 170 168 160 163 173 165 164 174 183 187 183 188 194 197 195 204 208 204 208 216 215
97 37 217 241 272 104 92 51 70 102 110 121 135 142 134 122 116 106 99 103 114 100 109 101 127 142 146 143 149 153 160 168 182 193 199 200 195 200 206 203 203 211 220 224
124 158 272 308 328 25 105 32 40 92 86 83 95 75 50 71 103 111 125 143 139 142 134 122 113 129 124 132 143 148 162 174 182 189 194 193 200 209 207 198 210 213 219 221
130 150 217 256 300 321 92 33 3 85 97 94 79 75 286 338 68 68 63 58 59 55 84 106 131 132 129 150 155 178 193 199 196 189 190 200 211 212 204 198 209 208 221 224
151 189 254 277 311 30 90 230 280 107 121 111 117 189 224 312 14 72 69 58 73 72 92 156 146 134 146 166 196 212 202 195 198 200 201 203 206 207 201 205 212 215 221 235
139 169 251 313 32 88 203 226 143 103 115 103 117 127 107 54 23 12 32 46 98 95 43 276 121 126 151 197 217 203 180 184 200 209 211 207 199 209 205 196 208 222 224 244
172 203 238 332 113 163 147 115 93 101 93 97 91 68 27 45 52 315 259 192 120 119 85 329 188 146 184 225 199 158 172 199 211 214 213 197 189 202 212 208 213 227 224 236
80 283 338 21 45 65 99 120 130 126 125 112 108 97 356 346 325 313 314 254 164 128 144 270 270 211 211 213 170 163 188 214 210 211 222 220 202 201 205 212 216 222 224 232
76 284 353 356 357 28 47 58 59 60 99 136 127 123 202 285 300 293 296 287 232 196 206 227 254 234 218 184 155 169 202 223 217 213 209 215 219 215 215 221 211 208 217 214
220 234 200 259 296 63 78 69 72 49 3 347 152 213 253 258 256 264 257 263 271 238 211 219 225 245 217 181 169 172 214 247 231 218 213 205 210 281 292 247 247 221 218 212
213 239 225 258 301 33 74 53 27 238 247 284 286 241 233 247 251 259 242 225 237 245 226 214 221 242 243 207 195 202 212 225 229 217 209 207 207 205 234 333 12 326 244 227
249 74 352 313 301 331 359 351 345 328 313 285 279 273 253 255 252 257 249 238 233 243 255 219 212 267 268 228 216 230 228 222 223 223 215 208 214 218 207 199 243 321 348 338
312 257 236 268 303 322 337 5 4 332 324 317 294 256 266 263 247 257 262 253 257 321 285 272 261 284 284 234 225 235 236 235 226 223 218 205 203 214 215 200 185 178 19 13
296 329 323 302 288 296 316 312 277 288 292 297 294 265 224 213 236 263 273 256 209 261 285 291 281 276 269 244 231 232 241 268 253 211 204 187 185 203 217 199 171 170 176 160
238 284 284 280 280 285 281 263 243 254 263 265 272 261 234 187 52 332 295 274 199 184 252 284 292 305 315 314 277 242 256 272 339 163 180 176 181 206 212 200 188 184 190 182
213 230 230 222 236 262 285 292 288 288 273 255 256 278 232 161 190 249 276 18 40 19 352 320 318 332 352 10 18 272 196 80 113 153 91 331 153 190 199 190 185 162 142 129
247 236 253 262 262 257 273 284 296 305 299 296 114 126 202 186 176 192 158 105 93 353 318 328 345 9 358 10 48 46 59 62 47 40 65 74 84 96 149 147 145 138 134 137
18 0 3 346 333 302 288 283 308 356 11 69 83 71 43 349 3 137 119 141 243 241 263 329 28 23 360 32 64 64 65 74 67 69 72 78 73 61 80 105 120 122 132 158
5 13 34 352 317 316 304 240 140 143 148 90 118 141 156 167 108 106 116 328 303 292 278 59 66 359 14 57 54 57 57 88 78 68 77 84 82 65 50 103 131 144 155 160
18 29 28 353 337 336 330 280 140 135 87 40 90 136 134 144 260 185 218 223 258 270 228 180 198 78 76 76 73 60 34 81 86 83 79 86 95 82 57 75 103 113 122 127
351 350 338 311 250 204 360 358 149 146 137 124 133 152 163 193 202 183 244 275 257 275 258 245 249 93 90 86 83 84 68 66 83 92 93 87 82 75 73 79 85 93 96 98
333 333 328 334 67 70 25 335 12 48 66 66 249 189 160 137 32 259 204 208 157 49 54 51 78 76 72 69 68 69 67 60 66 78 81 80 77 71 65 68 73 71 74 80
337 343 354 12 35 38 282 4 45 48 55 38 18 11 6 102 156 198 134 124 101 82 65 60 70 74 73 69 66 62 58 55 63 73 77 75 72 73 68 65 68 65 64 71
327 323 309 300 230 186 134 100 86 71 67 53 23 10 9 23 66 82 90 87 76 74 73 63 66 71 76 73 67 67 65 58 59 64 69 69 68 67 63 61 62 65 65 70
338 333 343 0 358 26 91 98 100 97 105 105 68 14 33 54 60 61 67 71 70 67 63 57 64 71 71 67 65 64 64 59 60 63 66 68 66 61 56 60 63 64 68 70